Showing default

METEOR M2-2, 44387

Orbit data source: Space-Track

METEOR M2-2, 44387 is a Commonwealth of Independent States-origin payload satellite in SSO that was launched on Fri, 05 Jul 2019 UTC via a SOYUZ-2-1B launch vehicle from the Vostochny Cosmodrome (VOSTO). Payload-class satellites include a variety of spacecraft equipped with specific instruments for various scientific and technological missions. These include communications satellites like Starlink; space stations such as the ISS; scientific satellites like the Hubble; Earth observation satellites from companies like Planet Labs, Umbra, and HawkEye 360; GPS; miniature CubeSats for education and research; and military/defense satellites.

Loading next visibility...
Identifier
44387, 2019-038A
Orbit
SSO
Last TLE update
5 hours ago
Origin
Manufacturer
VNIIEM
Mission
Partially operational Civil Weather
Bus & Motor
RESURS-O, Unknown motor
Mass
2,879 kg wet, ~2,600 kg dry
Launch date (UTC)
2019-07-05 (6 years ago)
Launch vehicle
SOYUZ-2-1B
Launch site
Vostochny Cosmodrome (VOSTO)
Object type
Payload
Rocket body
Debris
Shape & HBR
Cyl + 2 Pan, 14 m
Radar Cross Section
26.744 m², Large (>1 m²)

Expand to show TLE details & history

TLE from 5 hours ago
0 METEOR M2-2
1 44387U 19038A   25182.20619459  .00000049  00000-0  41077-4 0  9997
2 44387  98.8751 160.1011 0000876  12.4270 347.6930 14.24213303311339
Epoch: 2025-07-01T04:56Z
TLE epoch observation values (Epoch: 2025-07-01T04:56:55.212Z)
Latitude
-0°
Longitude
166.36607°
Altitude
813.438 km
Speed
7.447 km/s
True Right ascension
10h 40m 24s
True Declination
0° 00' 00"
Sunlit
Object was in daylight at epoch
Visualization orbit readout
Latitude
-1.1155°
Longitude
166.7519°
Altitude
813.591 km
Speed
7.447 km/s
Apparent Right ascension
10h 16m 15s
Apparent Declination
-19° 21' 58"
Sunlit
Object is in daylight
Visualization observer readout
Local Sidereal Time
21:38:28
Azimuth
335.691° NNW
Elevation
-67.904°
Doppler factor
1
Orbital elements
Apogee altitude
808.929 km
Perigee altitude
807.67 km
Semi-major axis
7,186.437 km
Eccentricity
0.00009
Inclination
98.8751°
RAAN
160.1011°
Arg. of periapsis
12.427°
True anomaly
Unknown
Mean anomaly
347.693°
Eccentric anomaly
Unknown
Mean motion
3.56265 °/min
Orbital period
101.05 mins
BSTAR
0.000041077
Loading maneuver chart data...
Loading SW <> Apogee altitude chart data...

METEOR M2-2 Visibility forecast

Observer location: undefined°, undefined°

Span
Click to sort rows by Start time (UTC) header in descending order
Start Az.
Max El. time (UTC)
Max El. Az.
Max El.
End time (UTC)
End Az.
8 mins2025-07-01 10:36:06.065Z40.029° NE2025-07-01 10:40:06.065Z96.323° ESE26.059°2025-07-01 10:44:06.065Z152.581° SSE
7 mins2025-07-01 12:17:06.065Z341.993° N2025-07-01 12:20:06.065Z288.582° WNW29.053°2025-07-01 12:24:06.065Z232.254° WSW
8 mins2025-07-01 21:57:06.065Z133.434° SE2025-07-01 22:00:06.065Z81.529° E35.204°2025-07-01 22:05:06.065Z0.191° NNE
6 mins2025-07-01 23:38:06.065Z231.635° WSW2025-07-01 23:40:06.065Z259.674° W19.981°2025-07-01 23:44:06.065Z312.303° NW
|